Tracking 19245 objects as of 18-Aug-2018
HD Live streaming from Space Station
objects crossing your sky now

SL-12 R/B(AUX MOTOR)

Track SL-12 R/B(AUX MOTOR) now!
10-day predictions


NORAD ID: 28919
Int'l Code: 2005-050E
Perigee: 498.5 km
Apogee: 19,007.4 km
Inclination: 65.0 °
Period: 339.6 minutes
Semi major axis: 16123 km
RCS: 0.5815 m2 (medium)
Launch date: December 25, 2005
Source: Commonwealth of Independent States (former USSR) (CIS)
Launch site: TYURATAM MISSILE AND SPACE COMPLEX (TTMTR)

Note: This is a ROCKET BODY
aabbcc
Your satellite tracking list
Your tracking list is empty




NASA's NSSDC Master Catalog

Two Line Element Set (TLE):
1 28919U 05050E   18226.29171848 -.00000052 +00000-0 +62547-4 0  9994
2 28919 065.0163 351.1867 5739548 337.7545 004.9948 04.24029145194894
Source of the keplerian elements: AFSPC